OneWeb SL0254

operational
NORAD ID: 48972 Int'l Des: 2021-060 Owner: ONEWEBN Country: UK Constellation: oneweb
LEOCIRCULARPOLARONEWEB_TYPE

Über OneWeb SL0254

Beschreibung wird geladen...

Live-Position

3D-Globus wird geladen...

Nächste Überflüge

Höhenverlauf

Altitude vs Time

uPlot chart will show altitude changes over time

Zweizeiliger Elementsatz

1 48972U 21060F 25351.29744450 .00000228 00000-0 56215-3 0 9994
2 48972 87.9050 264.9861 0001766 61.9635 298.1675 13.16592477215659
Epoch: 17. Dez. 2025 • Age: 12 hours

Aktueller Status

Höhe 1208.6 km
Geschwindigkeit 7.26 km/s
Subsatellitenpunkt 66.80°N, 73.55°E
Startdatum 1. Juli 2021
Alter 4.4 years
Typ internet

Technische Details

Klassifizierung Payload
Masse 148.00 kg
Trockenmasse 140.00 kg
Gesamtmasse 148.00 kg
Länge 1.30 m
Durchmesser 1.00 m
Spannweite 5.00 m
Form Trapezoid+2 pan
Hersteller ONEWUS
Bus-Typ ARROW
Phasenstatus In Orbit
Besitzer/Staat ONEWEBN/UK

Große Konstellationen

Loading constellations...